Weather History for Baltimore, MD

Change the Weather History Date:

Monday, October 29, 2012

  Actual Average Record
Temperature  
Mean Temperature 50 °F 52 °F  
Max Temperature 54 °F 63 °F 82 °F (1946)
Min Temperature 46 °F 41 °F 26 °F (2001)
Degree Days  
Heating Degree Days 15 13  
Month to date heating degree days 189 267  
Since 1 July heating degree days 217 320  
Cooling Degree Days 0 0  
Month to date cooling degree days 28 15  
Year to date cooling degree days 1569 1160  
Moisture  
Dew Point 48 °F    
Average Humidity 91    
Maximum Humidity 96    
Minimum Humidity 86    
Precipitation  
Precipitation 5.51 in 0.11 in 5.51 in (2012)
Month to date precipitation 8.00 3.11  
Year to date precipitation 32.68 34.99  
Snow  
Snow 0.00 in 0.00 in T in (2011)
Month to date snowfall 0.0 0.0  
Since 1 July snowfall 0.0 0.0  
Snow Depth 0.00 in    
Sea Level Pressure  
Sea Level Pressure 29.12 in    
Wind  
Wind Speed 21 mph (NW)    
Max Wind Speed 40 mph    
Max Gust Speed 60 mph    
Visibility 4 miles    
Events Rain    
T = Trace of Precipitation, MM = Missing Value Source: NWS Daily Summary

Daily Weather History Graph

Daily Weather History Graph

Search for Another Location

Airport:

Trip Planner

Search our weather history database for the weather conditions in past years. The results will help you decide how hot, cold, wet, or windy it might be!

Date:

Astronomy

Oct. 29, 2012 Rise Set
Actual Time 7:31 AM EDT 6:08 PM EDT
Civil Twilight 7:03 AM EDT 6:36 PM EDT
Nautical Twilight 6:32 AM EDT 7:07 PM EDT
Astronomical Twilight 6:01 AM EDT 7:38 PM EDT
Moon 5:59 PM EDT (10/29) 7:19 AM EDT (10/29)
Length of Visible Light 11h 32m
Length of Day
10h 37m
Full, 100% of the Moon is Illuminated
Oct 29
Full
Oct 29
Full
Nov 6
Last Quarter
Nov 13
New
Nov 20
First Quarter

Hourly Weather History & Observations

Time (EDT) Temp. Windchill Dew Point Humidity Pressure Visibility Wind Dir Wind Speed Gust Speed Precip Events Conditions
12:54 AM 54.0 °F - 51.1 °F 90% 29.55 in 7.0 mi NNE 15.0 mph 21.9 mph 0.04 in Rain Light Rain
1:20 AM 53.6 °F - 51.8 °F 94% 29.54 in 6.0 mi NNE 10.4 mph - 0.04 in Rain Rain
1:54 AM 54.0 °F - 50.0 °F 86% 29.53 in 7.0 mi North 9.2 mph 20.7 mph 0.08 in Rain Light Rain
2:17 AM 53.6 °F - 50.0 °F 88% 29.52 in 6.0 mi North 10.4 mph - 0.02 in Rain Light Rain
2:36 AM 53.6 °F - 50.0 °F 88% 29.51 in 7.0 mi North 10.4 mph 17.3 mph 0.04 in Rain Light Rain
2:44 AM 53.6 °F - 50.0 °F 88% 29.51 in 9.0 mi North 8.1 mph - 0.04 in Rain Light Rain
2:54 AM 53.1 °F - 50.0 °F 89% 29.51 in 6.0 mi North 9.2 mph - 0.05 in Rain Light Rain
3:54 AM 53.1 °F - 50.0 °F 89% 29.50 in 5.0 mi North 10.4 mph - 0.07 in Rain Light Rain
4:54 AM 52.0 °F - 50.0 °F 93% 29.49 in 5.0 mi North 8.1 mph 17.3 mph 0.14 in Rain Rain
5:11 AM 51.8 °F - 50.0 °F 94% 29.48 in 5.0 mi NNW 10.4 mph 19.6 mph 0.04 in Rain Rain
5:22 AM 51.8 °F - 48.2 °F 88% 29.47 in 6.0 mi NNW 10.4 mph - N/A Rain Rain
5:46 AM 51.8 °F - 48.2 °F 88% 29.45 in 6.0 mi NNW 11.5 mph - N/A Rain Rain
5:54 AM 52.0 °F - 48.9 °F 89% 29.45 in 5.0 mi North 11.5 mph 19.6 mph 0.16 in Rain Rain
6:54 AM 51.1 °F - 48.9 °F 92% 29.43 in 5.0 mi NNW 15.0 mph 23.0 mph 0.23 in Rain Heavy Rain
7:19 AM 51.8 °F - 48.2 °F 88% 29.43 in 5.0 mi North 10.4 mph 18.4 mph 0.09 in Rain Rain
7:54 AM 51.1 °F - 48.9 °F 92% 29.43 in 4.0 mi NNW 13.8 mph 19.6 mph 0.27 in Rain Heavy Rain
8:54 AM 51.1 °F - 48.9 °F 92% 29.40 in 3.0 mi NNW 15.0 mph 20.7 mph 0.43 in Rain Heavy Rain
9:22 AM 51.8 °F - 48.2 °F 88% 29.36 in 4.0 mi NW 17.3 mph 25.3 mph N/A Rain Rain
9:54 AM 51.1 °F - 48.0 °F 89% 29.34 in 4.0 mi NNW 19.6 mph 27.6 mph 0.19 in Rain Rain
10:21 AM 51.8 °F - 48.2 °F 88% 29.30 in 3.0 mi NW 17.3 mph 27.6 mph 0.08 in Rain Rain
10:54 AM 51.1 °F - 48.0 °F 89% 29.25 in 3.0 mi NW 21.9 mph 29.9 mph 0.21 in Rain Rain
11:54 AM 51.1 °F - 48.0 °F 89% 29.20 in 1.5 mi NW 17.3 mph 29.9 mph 0.21 in Rain Rain
12:54 PM 51.1 °F - 48.0 °F 89% 29.09 in 2.0 mi NW 24.2 mph 36.8 mph 0.29 in Rain Rain
1:36 PM 51.8 °F - 48.2 °F 88% 29.06 in 1.8 mi North 11.5 mph 26.5 mph 0.18 in Rain Rain
1:54 PM 51.1 °F - 48.0 °F 89% 29.03 in 1.5 mi NW 10.4 mph 28.8 mph 0.31 in Rain Heavy Rain
2:54 PM 51.1 °F - 48.0 °F 89% 28.95 in 2.0 mi WNW 23.0 mph 34.5 mph 0.31 in Rain Rain
3:54 PM 50.0 °F - 46.9 °F 89% 28.85 in 1.8 mi WNW 20.7 mph 31.1 mph 0.32 in Rain Heavy Rain
4:54 PM 50.0 °F - 46.9 °F 89% 28.78 in 1.2 mi NW 21.9 mph 43.7 mph 0.29 in Rain Heavy Rain
5:54 PM 50.0 °F - 46.0 °F 86% 28.68 in 1.2 mi WNW 27.6 mph 44.9 mph 0.31 in Rain Heavy Rain
6:54 PM 48.9 °F - 46.0 °F 90% 28.62 in 1.8 mi WNW 34.5 mph 48.3 mph 0.32 in Rain Heavy Rain
7:54 PM 48.0 °F - 45.0 °F 89% 28.54 in 1.2 mi WNW 28.8 mph 47.2 mph 0.35 in Rain Heavy Rain
8:54 PM 48.0 °F - 45.0 °F 89% 28.52 in 1.2 mi West 40.3 mph 58.7 mph 0.25 in Rain Rain
9:06 PM 46.4 °F 36.5 °F 44.6 °F 93% 28.54 in 1.2 mi West 34.5 mph 55.2 mph 0.02 in Rain Rain
9:54 PM 48.0 °F - 45.0 °F 89% 28.53 in 1.5 mi West 33.4 mph 49.5 mph 0.21 in Rain Rain
10:47 PM 46.4 °F 36.4 °F 44.6 °F 93% 28.49 in 1.5 mi West 35.7 mph 51.8 mph 0.16 in Rain Rain
10:54 PM 46.9 °F - 44.1 °F 90% 28.50 in 1.8 mi West 33.4 mph 48.3 mph 0.19 in Rain Rain
11:29 PM 46.4 °F 37.5 °F 44.6 °F 93% 28.50 in 2.0 mi West 27.6 mph 41.4 mph 0.09 in Rain Rain
11:54 PM 46.9 °F - 44.1 °F 90% 28.52 in 2.5 mi West 29.9 mph 44.9 mph 0.14 in Rain Rain